FDX134 KMEM-CYWG

Flight info

Callsign FDX134
Flight time 1h 2m
Altitude 36000
Route JTEEE5 ODATE DCT FTZ DCT CID DCT RST DCT KP09G DCT BIPKU NORAK6
Aircraft MD11/H-SDE1E2E3FGHIJ2J3J4J5M1RWXY/LB1D1

Departure

Time 2026-05-04 11:58
Airport Memphis International Airport (KMEM)

Arrival

Time 2026-05-04 13:00
Airport Winnipeg / James Armstrong Richardson International Airport (CYWG)
Time Latitude Longitude Altitude Speed Heading
2026-05-04 11:41 35.05507 -89.95856 304 ft 0 kts
2026-05-04 11:51 35.05507 -89.95857 304 ft 1 kts 360°
2026-05-04 11:51 35.05544 -89.95905 307 ft 19 kts 298°
2026-05-04 11:51 35.05580 -89.96195 303 ft 42 kts 290°
2026-05-04 11:51 35.05640 -89.96501 294 ft 38 kts 273°
2026-05-04 11:52 35.05652 -89.96835 287 ft 36 kts 272°
2026-05-04 11:52 35.05652 -89.97126 285 ft 32 kts 269°
2026-05-04 11:52 35.05575 -89.97353 288 ft 27 kts 238°
2026-05-04 11:52 35.05482 -89.97521 294 ft 22 kts 236°
2026-05-04 11:53 35.05439 -89.97659 290 ft 14 kts 265°
2026-05-04 11:53 35.05429 -89.97723 294 ft 1 kts 236°
2026-05-04 11:53 35.05425 -89.97730 290 ft 3 kts 231°
2026-05-04 11:53 35.05403 -89.97744 296 ft 8 kts 207°
2026-05-04 11:55 35.03972 -89.98128 318 ft 34 kts 267°
2026-05-04 11:55 35.04002 -89.98434 316 ft 36 kts 305°
2026-05-04 11:56 35.04271 -89.98503 312 ft 46 kts
2026-05-04 11:56 35.04626 -89.98512 311 ft 56 kts 358°
2026-05-04 11:56 35.04930 -89.98545 309 ft 17 kts 319°
2026-05-04 11:56 35.04942 -89.98607 310 ft 4 kts 264°
2026-05-04 11:57 35.04938 -89.98643 312 ft 9 kts 263°
2026-05-04 11:57 35.04911 -89.98720 313 ft 5 kts 221°
2026-05-04 11:57 35.04819 -89.98739 312 ft 48 kts 184°
2026-05-04 11:57 35.04169 -89.98728 312 ft 134 kts 180°
2026-05-04 11:58 35.03086 -89.98723 430 ft 184 kts 179°
2026-05-04 11:58 35.01612 -89.98616 766 ft 220 kts 176°
2026-05-04 11:58 35.00093 -89.98681 1808 ft 198 kts 195°
2026-05-04 11:58 34.98887 -89.99154 3432 ft 182 kts 200°
2026-05-04 11:59 34.97603 -89.99719 3809 ft 213 kts 205°
2026-05-04 11:59 34.96231 -90.00469 3954 ft 239 kts 214°
2026-05-04 11:59 34.94953 -90.01905 4662 ft 241 kts 236°
2026-05-04 11:59 34.94295 -90.03790 5413 ft 246 kts 259°
2026-05-04 12:00 34.94152 -90.05838 6159 ft 252 kts 268°
2026-05-04 12:00 34.94134 -90.07992 6922 ft 256 kts 269°
2026-05-04 12:00 34.94228 -90.10176 7642 ft 262 kts 281°
2026-05-04 12:00 34.94822 -90.12301 8360 ft 269 kts 291°
2026-05-04 12:01 34.95609 -90.14395 9119 ft 273 kts 294°
2026-05-04 12:01 34.96558 -90.16399 9846 ft 279 kts 304°
2026-05-04 12:02 35.20940 -90.16773 15793 ft 390 kts 12°
2026-05-04 12:03 35.26243 -90.15072 17115 ft 396 kts 11°
2026-05-04 12:03 35.31616 -90.13382 18408 ft 402 kts 10°
2026-05-04 12:03 35.37085 -90.11674 19597 ft 408 kts
2026-05-04 12:03 35.42622 -90.09943 20730 ft 414 kts
2026-05-04 12:04 35.48234 -90.08185 21792 ft 420 kts
2026-05-04 12:04 35.53825 -90.06431 22803 ft 426 kts
2026-05-04 12:04 35.59619 -90.04609 23837 ft 431 kts
2026-05-04 12:04 35.65417 -90.03624 24705 ft 425 kts 353°
2026-05-04 12:05 35.71320 -90.04098 25527 ft 428 kts 349°
2026-05-04 12:05 35.77363 -90.04765 26411 ft 434 kts 349°
2026-05-04 12:05 35.83241 -90.05952 27166 ft 434 kts 341°
2026-05-04 12:05 35.89121 -90.07795 27927 ft 439 kts 340°
2026-05-04 12:06 35.95074 -90.09708 28656 ft 445 kts 340°
2026-05-04 12:06 36.01130 -90.11604 29310 ft 451 kts 340°
2026-05-04 12:06 36.06876 -90.13382 29959 ft 455 kts 341°
2026-05-04 12:06 36.13365 -90.15387 30673 ft 460 kts 341°
2026-05-04 12:07 36.19578 -90.17308 31529 ft 459 kts 340°
2026-05-04 12:07 36.25761 -90.19224 32357 ft 456 kts 340°
2026-05-04 12:07 36.31876 -90.21125 33171 ft 452 kts 340°
2026-05-04 12:07 36.37989 -90.23032 33856 ft 451 kts 340°
2026-05-04 12:08 36.43938 -90.24885 34507 ft 448 kts 339°
2026-05-04 12:08 36.49898 -90.26744 35135 ft 445 kts 339°
2026-05-04 12:08 36.55795 -90.28588 35714 ft 442 kts 339°
2026-05-04 12:08 36.61779 -90.30469 35943 ft 446 kts 339°
2026-05-04 12:09 36.73749 -90.34240 35939 ft 442 kts 339°
2026-05-04 12:09 36.85671 -90.37998 35932 ft 442 kts 339°
2026-05-04 12:10 36.97621 -90.41778 35934 ft 443 kts 339°
2026-05-04 12:10 37.09223 -90.45459 35933 ft 442 kts 339°
2026-05-04 12:11 37.21462 -90.49341 35934 ft 442 kts 339°
2026-05-04 12:11 37.33387 -90.53159 35924 ft 441 kts 339°
2026-05-04 12:12 37.45292 -90.56978 35927 ft 442 kts 339°
2026-05-04 12:12 37.57214 -90.60821 35913 ft 441 kts 338°
2026-05-04 12:14 38.31557 -90.85013 35882 ft 442 kts 339°
2026-05-04 12:15 38.55415 -90.92882 35871 ft 440 kts 339°
2026-05-04 12:15 38.79368 -90.99279 35859 ft 444 kts 343°
2026-05-04 12:16 39.03621 -91.05254 35847 ft 445 kts 343°
2026-05-04 12:16 39.27332 -91.11140 35822 ft 446 kts 343°
2026-05-04 12:17 39.52314 -91.17393 35803 ft 447 kts 344°
2026-05-04 12:17 39.76563 -91.23504 35777 ft 447 kts 344°
2026-05-04 12:18 40.00976 -91.29693 35742 ft 447 kts 344°
2026-05-04 12:18 40.25314 -91.35911 35748 ft 449 kts 345°
2026-05-04 12:19 40.49829 -91.42232 35748 ft 448 kts 345°
2026-05-04 12:19 40.74338 -91.48587 35748 ft 449 kts 345°
2026-05-04 12:20 40.98941 -91.55015 35748 ft 451 kts 345°
2026-05-04 12:20 41.23544 -91.61506 35731 ft 451 kts 345°
2026-05-04 12:21 41.48200 -91.68049 35719 ft 453 kts 345°
2026-05-04 12:21 41.72943 -91.74663 35731 ft 454 kts 345°
2026-05-04 12:22 41.97382 -91.81790 35701 ft 452 kts 339°
2026-05-04 12:22 42.21383 -91.91947 35701 ft 452 kts 339°
2026-05-04 12:23 42.45210 -92.01997 35708 ft 451 kts 339°
2026-05-04 12:23 42.69113 -92.12154 35686 ft 449 kts 338°
2026-05-04 12:24 42.92884 -92.22379 35674 ft 446 kts 338°
2026-05-04 12:24 43.16077 -92.32415 35653 ft 442 kts 338°
2026-05-04 12:25 43.39516 -92.42611 35623 ft 441 kts 337°
2026-05-04 12:25 43.62839 -92.52881 35605 ft 439 kts 337°
2026-05-04 12:26 43.85718 -92.63347 35589 ft 437 kts 335°
2026-05-04 12:26 44.08721 -92.74732 35579 ft 437 kts 334°
2026-05-04 12:27 44.31555 -92.86104 35562 ft 435 kts 334°
2026-05-04 12:27 44.54365 -92.97558 35553 ft 436 kts 334°
2026-05-04 12:28 44.77155 -93.09133 35543 ft 436 kts 333°
2026-05-04 12:28 44.98521 -93.20037 35534 ft 436 kts 333°
2026-05-04 12:29 45.21379 -93.31802 35517 ft 437 kts 332°
2026-05-04 12:29 45.43583 -93.43356 35521 ft 437 kts 332°
2026-05-04 12:30 45.66518 -93.55369 35525 ft 438 kts 331°
2026-05-04 12:30 45.89450 -93.67483 35535 ft 439 kts 331°
2026-05-04 12:31 46.12226 -93.79616 35519 ft 439 kts 330°
2026-05-04 12:31 46.35090 -93.91943 35509 ft 439 kts 330°
2026-05-04 12:32 46.69325 -94.10946 35489 ft 439 kts 330°
2026-05-04 12:33 46.91930 -94.23810 35498 ft 441 kts 331°
2026-05-04 12:33 47.14863 -94.36981 35493 ft 443 kts 331°
2026-05-04 12:34 47.37888 -94.50368 35503 ft 445 kts 332°
2026-05-04 12:34 47.60772 -94.63760 35525 ft 446 kts 332°
2026-05-04 12:35 47.83862 -94.77405 35500 ft 446 kts 332°
2026-05-04 12:35 48.06910 -94.91164 35486 ft 446 kts 332°
2026-05-04 12:36 48.27825 -95.03786 35478 ft 450 kts 332°
2026-05-04 12:36 48.39426 -95.10816 35477 ft 449 kts 332°
2026-05-04 12:37 48.49067 -95.16686 35471 ft 450 kts 333°
2026-05-04 12:37 48.60643 -95.23765 35002 ft 448 kts 332°
2026-05-04 12:37 48.66290 -95.27232 34051 ft 446 kts 332°
2026-05-04 12:38 48.69117 -95.28970 33526 ft 444 kts 332°
2026-05-04 12:38 48.71967 -95.30733 32916 ft 443 kts 331°
2026-05-04 12:38 48.74760 -95.32555 32169 ft 443 kts 330°
2026-05-04 12:38 48.77579 -95.34423 31423 ft 442 kts 330°
2026-05-04 12:39 48.80407 -95.36270 30844 ft 441 kts 331°
2026-05-04 12:39 48.83193 -95.38065 30536 ft 445 kts 331°
2026-05-04 12:39 48.86066 -95.39900 30068 ft 450 kts 331°
2026-05-04 12:39 48.88965 -95.41730 29514 ft 451 kts 332°
2026-05-04 12:40 48.91831 -95.43526 28960 ft 451 kts 332°
2026-05-04 12:40 48.94729 -95.45336 28382 ft 451 kts 332°
2026-05-04 12:40 48.97647 -95.47157 27800 ft 453 kts 332°
2026-05-04 12:40 49.00569 -95.48981 27224 ft 453 kts 332°
2026-05-04 12:41 49.03489 -95.50807 26642 ft 453 kts 332°
2026-05-04 12:41 49.06404 -95.52632 26050 ft 451 kts 332°
2026-05-04 12:41 49.09188 -95.54706 25489 ft 440 kts 323°
2026-05-04 12:41 49.11604 -95.57457 24916 ft 430 kts 315°
2026-05-04 12:42 49.13715 -95.60507 24359 ft 424 kts 311°
2026-05-04 12:42 49.15763 -95.63723 23791 ft 420 kts 310°
2026-05-04 12:42 49.17682 -95.66773 23257 ft 417 kts 311°
2026-05-04 12:42 49.19793 -95.70083 22683 ft 413 kts 311°
2026-05-04 12:43 49.21789 -95.73166 22140 ft 410 kts 311°
2026-05-04 12:43 49.23804 -95.76234 21592 ft 407 kts 312°
2026-05-04 12:43 49.25809 -95.79269 21049 ft 404 kts 312°
2026-05-04 12:43 49.27806 -95.82283 20514 ft 402 kts 312°
2026-05-04 12:44 49.29783 -95.85265 19986 ft 398 kts 312°
2026-05-04 12:44 49.31750 -95.88234 19458 ft 395 kts 312°
2026-05-04 12:44 49.33701 -95.91184 18936 ft 392 kts 312°
2026-05-04 12:44 49.35638 -95.94115 18417 ft 389 kts 312°
2026-05-04 12:45 49.37555 -95.97016 17896 ft 386 kts 312°
2026-05-04 12:45 49.39459 -95.99901 17391 ft 382 kts 312°
2026-05-04 12:45 49.41342 -96.02762 16884 ft 379 kts 312°
2026-05-04 12:45 49.43205 -96.05596 16386 ft 376 kts 312°
2026-05-04 12:46 49.44966 -96.08280 15903 ft 373 kts 312°
2026-05-04 12:46 49.46887 -96.11210 15393 ft 371 kts 312°
2026-05-04 12:46 49.48710 -96.13992 14908 ft 369 kts 313°
2026-05-04 12:46 49.50525 -96.16763 14415 ft 364 kts 313°
2026-05-04 12:47 49.52324 -96.19504 13951 ft 364 kts 312°
2026-05-04 12:47 49.54050 -96.22162 13490 ft 361 kts 313°
2026-05-04 12:47 49.55822 -96.24885 13011 ft 358 kts 313°
2026-05-04 12:47 49.57515 -96.27478 12572 ft 356 kts 313°
2026-05-04 12:48 49.59341 -96.30277 12089 ft 354 kts 313°
2026-05-04 12:48 49.61083 -96.32951 11618 ft 352 kts 314°
2026-05-04 12:48 49.62811 -96.35609 11177 ft 349 kts 314°
2026-05-04 12:48 49.64524 -96.38248 10892 ft 346 kts 314°
2026-05-04 12:49 49.66195 -96.40825 10772 ft 329 kts 314°
2026-05-04 12:49 49.67754 -96.43230 10652 ft 305 kts 314°
2026-05-04 12:49 49.69193 -96.45464 10554 ft 283 kts 314°
2026-05-04 12:49 49.70525 -96.47557 10448 ft 263 kts 314°
2026-05-04 12:50 49.71745 -96.49470 10346 ft 246 kts 314°
2026-05-04 12:50 49.72930 -96.51399 10213 ft 247 kts 309°
2026-05-04 12:50 49.73763 -96.53637 9868 ft 251 kts 291°
2026-05-04 12:50 49.74123 -96.56350 9463 ft 251 kts 282°
2026-05-04 12:51 49.74332 -96.59030 9070 ft 251 kts 282°
2026-05-04 12:51 49.74518 -96.61672 8694 ft 250 kts 282°
2026-05-04 12:51 49.74706 -96.64345 8305 ft 249 kts 282°
2026-05-04 12:51 49.74893 -96.66998 7921 ft 247 kts 282°
2026-05-04 12:52 49.75077 -96.69628 7571 ft 244 kts 282°
2026-05-04 12:52 49.75262 -96.72235 7239 ft 244 kts 282°
2026-05-04 12:52 49.75447 -96.74838 6901 ft 242 kts 282°
2026-05-04 12:52 49.75626 -96.77420 6564 ft 240 kts 282°
2026-05-04 12:53 49.75802 -96.79983 6242 ft 239 kts 282°
2026-05-04 12:53 49.75976 -96.82530 5901 ft 237 kts 282°
2026-05-04 12:53 49.76140 -96.84876 5605 ft 233 kts 282°
2026-05-04 12:53 49.76322 -96.87464 5201 ft 236 kts 282°
2026-05-04 12:54 49.76503 -96.89982 4841 ft 235 kts 281°
2026-05-04 12:54 49.76677 -96.92490 4512 ft 235 kts 281°
2026-05-04 12:54 49.76851 -96.94994 4233 ft 230 kts 281°
2026-05-04 12:54 49.77015 -96.97386 4146 ft 216 kts 280°
2026-05-04 12:55 49.77157 -96.99571 4064 ft 194 kts 281°
2026-05-04 12:55 49.77288 -97.01543 3980 ft 179 kts 281°
2026-05-04 12:55 49.77422 -97.03463 3918 ft 178 kts 281°
2026-05-04 12:55 49.77604 -97.05326 3819 ft 172 kts 290°
2026-05-04 12:56 49.78150 -97.06769 3565 ft 162 kts 314°
2026-05-04 12:56 49.78963 -97.08076 3338 ft 164 kts 313°
2026-05-04 12:56 49.79754 -97.09341 3063 ft 164 kts 315°
2026-05-04 12:56 49.80566 -97.10561 2845 ft 165 kts 317°
2026-05-04 12:57 49.81393 -97.11699 2693 ft 155 kts 318°
2026-05-04 12:57 49.82197 -97.12799 2624 ft 150 kts 317°
2026-05-04 12:57 49.82955 -97.13842 2469 ft 142 kts 317°
2026-05-04 12:57 49.83663 -97.14803 2314 ft 144 kts 317°
2026-05-04 12:58 49.84429 -97.15851 2133 ft 144 kts 318°
2026-05-04 12:58 49.85192 -97.16891 1917 ft 141 kts 317°
2026-05-04 12:58 49.85922 -97.17891 1744 ft 140 kts 317°
2026-05-04 12:58 49.86655 -97.18883 1551 ft 141 kts 317°
2026-05-04 12:59 49.87392 -97.19891 1372 ft 143 kts 317°
2026-05-04 12:59 49.88133 -97.20915 1192 ft 141 kts 319°
2026-05-04 12:59 49.88855 -97.21893 1035 ft 138 kts 318°
2026-05-04 12:59 49.89543 -97.22844 816 ft 123 kts 317°
2026-05-04 13:00 49.90108 -97.23613 797 ft 97 kts 320°
2026-05-04 13:00 49.90527 -97.24189 796 ft 62 kts 319°
2026-05-04 13:00 49.90656 -97.24466 798 ft 17 kts 257°
2026-05-04 13:00 49.90632 -97.24530 796 ft 1 kts 205°
2026-05-04 13:01 49.90593 -97.24543 795 ft 17 kts 186°
2026-05-04 13:01 49.90368 -97.24543 795 ft 38 kts 183°
2026-05-04 13:01 49.90029 -97.24588 794 ft 59 kts 179°
2026-05-04 13:01 49.89791 -97.24671 794 ft 8 kts 239°
2026-05-04 13:02 49.89780 -97.24735 793 ft 4 kts 267°
2026-05-04 13:02 49.89781 -97.24795 792 ft 2 kts 272°
2026-05-04 13:02 49.89781 -97.24796 792 ft 0 kts 272°